| time (UTC) | temp F | wind direction | speed MPH | gust MPH | rain 1hr in | rain 24hr in | rain mn in | humidity % | barometer mb |
| 20260508204553 | 71 | 262 | 3.0 | 11.0 | 0.00 | 0.00 | 0.00 | 41 | 1012.9 |
| 20260508203054 | 70 | 350 | 3.0 | 12.0 | 0.00 | 0.00 | 0.00 | 43 | 1013.1 |
| 20260508201551 | 70 | 40 | 4.0 | 11.0 | 0.00 | 0.00 | 0.00 | 41 | 1013.4 |
| 20260508200050 | 70 | 360 | 4.0 | 16.0 | 0.00 | 0.00 | 0.00 | 42 | 1013.6 |
| 20260508194556 | 70 | 331 | 6.0 | 14.0 | 0.00 | 0.00 | 0.00 | 41 | 1013.4 |
| 20260508193105 | 70 | 312 | 4.0 | 16.0 | 0.00 | 0.00 | 0.00 | 42 | 1013.6 |
| 20260508191556 | 70 | 352 | 5.0 | 17.0 | 0.00 | 0.00 | 0.00 | 42 | 1013.7 |
| 20260508190105 | 70 | 336 | 8.0 | 20.0 | 0.00 | 0.00 | 0.00 | 41 | 1014.1 |
| 20260508184603 | 70 | 44 | 6.0 | 16.0 | 0.00 | 0.00 | 0.00 | 41 | 1014.2 |
| 20260508183114 | 70 | 342 | 6.0 | 16.0 | 0.00 | 0.00 | 0.00 | 43 | 1014.2 |
| 20260508181559 | 69 | 327 | 4.0 | 12.0 | 0.00 | 0.00 | 0.00 | 42 | 1014.5 |
| 20260508180105 | 69 | 326 | 4.0 | 17.0 | 0.00 | 0.00 | 0.00 | 43 | 1014.9 |
| 20260508174613 | 68 | 38 | 6.0 | 14.0 | 0.00 | 0.00 | 0.00 | 45 | 1015.3 |
| 20260508173054 | 68 | 331 | 4.0 | 16.0 | 0.00 | 0.00 | 0.00 | 44 | 1015.6 |
| 20260508171554 | 68 | 48 | 5.0 | 11.0 | 0.00 | 0.00 | 0.00 | 46 | 1015.9 |
| 20260508170057 | 67 | 87 | 4.0 | 13.0 | 0.00 | 0.00 | 0.00 | 47 | 1016.2 |
| 20260508164553 | 67 | 22 | 4.0 | 12.0 | 0.00 | 0.00 | 0.00 | 46 | 1016.3 |
| 20260508163054 | 67 | 0 | 6.0 | 14.0 | 0.00 | 0.00 | 0.00 | 47 | 1016.6 |
| 20260508161548 | 66 | 5 | 2.0 | 14.0 | 0.00 | 0.00 | 0.00 | 50 | 1016.8 |
| 20260508160052 | 65 | 347 | 5.0 | 13.0 | 0.00 | 0.00 | 0.00 | 49 | 1017.0 |
| 20260508154559 | 65 | 78 | 4.0 | 14.0 | 0.00 | 0.00 | 0.00 | 52 | 1017.2 |
| 20260508153104 | 64 | 98 | 3.0 | 12.0 | 0.00 | 0.00 | 0.00 | 53 | 1017.3 |
| 20260508151603 | 63 | 30 | 3.0 | 12.0 | 0.00 | 0.00 | 0.00 | 53 | 1017.6 |
| 20260508144609 | 62 | 84 | 5.0 | 11.0 | 0.00 | 0.00 | 0.00 | 55 | 1017.7 |
| 20260508143100 | 61 | 350 | 2.0 | 12.0 | 0.00 | 0.00 | 0.00 | 57 | 1017.6 |
| 20260508141605 | 60 | 352 | 1.0 | 13.0 | 0.00 | 0.00 | 0.00 | 60 | 1017.8 |
| 20260508140057 | 59 | 306 | 4.0 | 10.0 | 0.00 | 0.00 | 0.00 | 59 | 1017.9 |
| 20260508134555 | 58 | 122 | 2.0 | 7.0 | 0.00 | 0.00 | 0.00 | 60 | 1017.9 |
| 20260508133056 | 57 | 340 | 1.0 | 10.0 | 0.00 | 0.00 | 0.00 | 61 | 1018.0 |
| 20260508131605 | 56 | 344 | 4.0 | 14.0 | 0.00 | 0.00 | 0.00 | 59 | 1017.8 |
| 20260508130055 | 55 | 63 | 3.0 | 12.0 | 0.00 | 0.00 | 0.00 | 59 | 1017.8 |
| 20260508124554 | 54 | 352 | 1.0 | 6.0 | 0.00 | 0.00 | 0.00 | 64 | 1017.7 |
| 20260508123117 | 52 | 294 | 1.0 | 5.0 | 0.00 | 0.00 | 0.00 | 66 | 1017.7 |
| 20260508121608 | 51 | 0 | 1.0 | 5.0 | 0.00 | 0.00 | 0.00 | 68 | 1017.6 |
| 20260508120111 | 50 | 332 | 1.0 | 7.0 | 0.00 | 0.00 | 0.00 | 69 | 1017.6 |
| 20260508114600 | 49 | 360 | 2.0 | 6.0 | 0.00 | 0.00 | 0.00 | 69 | 1017.6 |
| 20260508113111 | 48 | 324 | 2.0 | 4.0 | 0.00 | 0.00 | 0.00 | 70 | 1017.4 |
| 20260508111553 | 47 | 0 | 1.0 | 4.0 | 0.00 | 0.00 | 0.00 | 71 | 1017.3 |
| 20260508110107 | 47 | 0 | 1.0 | 4.0 | 0.00 | 0.00 | 0.00 | 72 | 1017.3 |
| 20260508104557 | 47 | 342 | 0.0 | 4.0 | 0.00 | 0.00 | 0.00 | 72 | 1017.2 |
| 20260508103108 | 47 | 352 | 0.0 | 4.0 | 0.00 | 0.00 | 0.00 | 73 | 1017.2 |
| 20260508101556 | 46 | 0 | 0.0 | 2.0 | 0.00 | 0.00 | 0.00 | 78 | 1017.1 |
| 20260508100055 | 46 | 0 | 0.0 | 2.0 | 0.00 | 0.00 | 0.00 | 78 | 1017.1 |
| 20260508094552 | 46 | 0 | 0.0 | 2.0 | 0.00 | 0.00 | 0.00 | 78 | 1017.1 |
| 20260508093101 | 45 | 0 | 0.0 | 1.0 | 0.00 | 0.00 | 0.00 | 84 | 1017.0 |
| 20260508091552 | 45 | 0 | 0.0 | 1.0 | 0.00 | 0.00 | 0.00 | 89 | 1016.9 |
| 20260508090100 | 45 | 136 | 0.0 | 2.0 | 0.00 | 0.00 | 0.00 | 88 | 1016.9 |
| 20260508084557 | 45 | 0 | 0.0 | 2.0 | 0.00 | 0.00 | 0.00 | 89 | 1016.9 |
| 20260508083051 | 45 | 0 | 0.0 | 2.0 | 0.00 | 0.00 | 0.00 | 88 | 1016.9 |
| 20260508081558 | 45 | 0 | 0.0 | 2.0 | 0.00 | 0.00 | 0.00 | 87 | 1016.7 |
| 20260508080052 | 45 | 136 | 0.0 | 2.0 | 0.00 | 0.00 | 0.00 | 87 | 1016.8 |
| 20260508074552 | 44 | 0 | 0.0 | 2.0 | 0.00 | 0.00 | 0.00 | 88 | 1016.8 |
| 20260508073056 | 44 | 0 | 0.0 | 1.0 | 0.00 | 0.00 | 0.00 | 89 | 1017.0 |
| 20260508071549 | 44 | 0 | 0.0 | 1.0 | 0.00 | 0.00 | 0.00 | 89 | 1017.2 |
| 20260508070053 | 43 | 0 | 0.0 | 1.0 | 0.00 | 0.00 | 0.00 | 90 | 1017.2 |
| 20260508064558 | 43 | 0 | 0.0 | 2.0 | 0.00 | 0.00 | 0.00 | 91 | 1017.3 |
| 20260508063104 | 43 | 136 | 1.0 | 2.0 | 0.00 | 0.00 | 0.00 | 92 | 1017.4 |
| 20260508061555 | 44 | 0 | 0.0 | 2.0 | 0.00 | 0.00 | 0.00 | 93 | 1017.4 |
| 20260508060058 | 43 | 0 | 0.0 | 1.0 | 0.00 | 0.00 | 0.00 | 93 | 1017.5 |
| 20260508054553 | 43 | 0 | 0.0 | 3.0 | 0.00 | 0.00 | 0.00 | 92 | 1017.7 |
| 20260508053105 | 43 | 0 | 0.0 | 2.0 | 0.00 | 0.00 | 0.00 | 93 | 1017.6 |
| 20260508051553 | 43 | 0 | 0.0 | 2.0 | 0.00 | 0.00 | 0.00 | 92 | 1017.6 |
| 20260508044554 | 44 | 0 | 0.0 | 1.0 | 0.00 | 0.00 | 0.00 | 92 | 1017.5 |
| 20260508043058 | 44 | 0 | 0.0 | 2.0 | 0.00 | 0.00 | 0.00 | 92 | 1017.5 |
| 20260508041559 | 44 | 0 | 0.0 | 1.0 | 0.00 | 0.00 | 0.00 | 91 | 1017.6 |
| 20260508040056 | 44 | 136 | 1.0 | 2.0 | 0.00 | 0.00 | 0.00 | 91 | 1017.5 |
| 20260508034558 | 45 | 0 | 0.0 | 2.0 | 0.00 | 0.00 | 0.00 | 90 | 1017.5 |
| 20260508033109 | 45 | 0 | 0.0 | 1.0 | 0.00 | 0.00 | 0.00 | 90 | 1017.6 |
| 20260508031550 | 45 | 0 | 0.0 | 2.0 | 0.00 | 0.00 | 0.00 | 89 | 1017.6 |
| 20260508030056 | 46 | 0 | 0.0 | 2.0 | 0.00 | 0.00 | 0.00 | 88 | 1017.7 |
| 20260508024554 | 46 | 136 | 0.0 | 2.0 | 0.00 | 0.00 | 0.00 | 87 | 1017.7 |
| 20260508023056 | 47 | 0 | 0.0 | 2.0 | 0.00 | 0.00 | 0.00 | 87 | 1017.6 |
| 20260508021556 | 47 | 0 | 0.0 | 1.0 | 0.00 | 0.00 | 0.00 | 85 | 1017.7 |
| 20260508014551 | 48 | 136 | 0.0 | 3.0 | 0.00 | 0.00 | 0.00 | 81 | 1017.5 |
| 20260508013057 | 49 | 136 | 1.0 | 2.0 | 0.00 | 0.00 | 0.00 | 79 | 1017.3 |
| 20260508011554 | 50 | 136 | 1.0 | 2.0 | 0.00 | 0.00 | 0.00 | 77 | 1017.1 |
| 20260508010053 | 51 | 136 | 1.0 | 2.0 | 0.00 | 0.00 | 0.00 | 74 | 1016.9 |
| 20260508004552 | 53 | 136 | 1.0 | 2.0 | 0.00 | 0.00 | 0.00 | 71 | 1016.9 |
| 20260508003051 | 55 | 136 | 2.0 | 3.0 | 0.00 | 0.00 | 0.00 | 70 | 1016.7 |
| 20260508001614 | 57 | 136 | 1.0 | 3.0 | 0.00 | 0.00 | 0.00 | 62 | 1016.4 |
| 20260508000053 | 59 | 136 | 1.0 | 3.0 | 0.00 | 0.00 | 0.00 | 55 | 1016.4 |
| 20260507234557 | 61 | 136 | 1.0 | 3.0 | 0.00 | 0.00 | 0.00 | 49 | 1016.4 |
| 20260507233058 | 62 | 137 | 1.0 | 4.0 | 0.00 | 0.00 | 0.00 | 42 | 1016.3 |
| 20260507231553 | 62 | 130 | 2.0 | 4.0 | 0.00 | 0.00 | 0.00 | 43 | 1016.2 |
| 20260507230057 | 62 | 134 | 3.0 | 8.0 | 0.00 | 0.00 | 0.00 | 41 | 1016.4 |
| 20260507224601 | 61 | 130 | 4.0 | 9.0 | 0.00 | 0.00 | 0.00 | 42 | 1016.3 |
| 20260507223056 | 62 | 160 | 2.0 | 9.0 | 0.00 | 0.00 | 0.00 | 41 | 1016.3 |
| 20260507221558 | 62 | 69 | 2.0 | 8.0 | 0.00 | 0.00 | 0.00 | 44 | 1016.3 |
| 20260507220054 | 62 | 137 | 3.0 | 8.0 | 0.00 | 0.00 | 0.00 | 40 | 1016.3 |
| 20260507214600 | 62 | 128 | 3.0 | 9.0 | 0.00 | 0.00 | 0.00 | 41 | 1016.4 |
| 20260507213056 | 62 | 71 | 1.0 | 11.0 | 0.00 | 0.00 | 0.00 | 41 | 1016.1 |
| 20260507211555 | 62 | 134 | 5.0 | 15.0 | 0.00 | 0.00 | 0.00 | 43 | 1016.2 |
| 20260507210053 | 61 | 24 | 3.0 | 14.0 | 0.00 | 0.00 | 0.00 | 40 | 1016.1 |